Date String (YYYY-MM-DD hh:mm:ss) UTC,Instrument flags,Ambient pressure (hPa),Sample flow (lpm),Bypass flow (lpm),Sample temperature (°C),Ambient temperature (°C),ASC tube jacket temperature (°C),LED temperature (°C),Box temperature (°C),Sample RH (%),Span deviation,Mass concentration (μg/m³),Mass concentration (μg/m³),Mass concentration (μg/m³)
DateTimeUTC,F1_M11,P_M11,Q1_M11,Q2_M11,T1_M11,T2_M11,T3_M11,T4_M11,T5_M11,U1_M11,ZSPAN_M11,X2_M11,X0_M11,X1_M11
2021-12-25 15:00:00,,0817.0,5.01,0.00,21.9,21.9,00.0,30.8,23.7,12.5,0000.0,0000.46,0000.82,0000.33
2021-12-25 15:01:00,,0817.0,5.00,0.00,21.9,21.8,00.0,30.8,23.7,12.6,0000.0,0000.45,0000.79,0000.32
2021-12-25 15:02:00,,0816.9,5.01,0.00,21.9,21.7,00.0,30.8,23.6,12.7,0000.0,0000.46,0001.32,0000.33
2021-12-25 15:03:00,,0817.0,4.99,0.00,21.9,21.6,00.0,30.9,23.6,12.8,0000.0,0000.46,0001.63,0000.32
2021-12-25 15:04:00,,0817.0,5.00,0.00,21.9,21.5,00.0,30.9,23.6,12.8,0000.0,0000.46,0001.67,0000.31
2021-12-25 15:05:00,,0817.0,5.00,0.00,21.9,21.5,00.0,30.9,23.6,12.9,0000.0,0000.46,0001.69,0000.31
2021-12-25 15:06:00,,0817.0,4.98,0.00,21.9,21.4,00.0,30.9,23.6,12.8,0000.0,0000.47,0001.71,0000.30
2021-12-25 15:07:00,,0817.0,5.00,0.00,21.9,21.4,00.0,30.9,23.6,12.9,0000.0,0000.46,0001.68,0000.30
2021-12-25 15:08:00,,0817.1,5.01,0.00,21.9,21.4,00.0,30.9,23.6,12.6,0000.0,0000.47,0001.82,0000.31
2021-12-25 15:09:00,,0817.2,4.99,0.00,21.9,21.4,00.0,30.9,23.6,12.8,0000.0,0000.48,0001.85,0000.30
2021-12-25 15:10:00,,0817.2,5.00,0.00,21.9,21.4,00.0,30.9,23.6,13.0,0000.0,0000.48,0001.83,0000.30
2021-12-25 15:11:00,,0817.3,5.01,0.00,22.0,21.4,00.0,30.9,23.7,13.1,0000.0,0000.48,0001.86,0000.29
2021-12-25 15:12:00,,0817.4,5.00,0.00,22.0,21.4,00.0,30.9,23.6,13.2,0000.0,0000.49,0001.87,0000.29
2021-12-25 15:13:00,,0817.4,5.01,0.00,21.9,21.4,00.0,30.9,23.6,13.4,0000.0,0000.51,0001.34,0000.29
2021-12-25 15:14:00,,0817.5,4.99,0.00,21.9,21.3,00.0,30.9,23.5,13.4,0000.0,0000.51,0001.09,0000.28
2021-12-25 15:15:00,,0817.5,5.01,0.00,21.9,21.3,00.0,30.9,23.5,13.4,0000.0,0000.51,0001.07,0000.28
2021-12-25 15:16:00,,0817.5,5.00,0.00,21.9,21.3,00.0,30.9,23.5,13.5,0000.0,0000.53,0001.11,0000.28
2021-12-25 15:17:00,,0817.5,4.99,0.00,21.8,21.2,00.0,30.9,23.5,13.7,0000.0,0000.51,0001.05,0000.28
2021-12-25 15:18:00,,0817.6,5.01,0.00,21.8,21.2,00.0,30.9,23.4,13.8,0000.0,0000.49,0000.99,0000.28
2021-12-25 15:19:00,,0817.6,4.99,0.00,21.8,21.2,00.0,30.9,23.3,14.2,0000.0,0000.48,0000.84,0000.28
2021-12-25 15:20:00,,0817.6,5.02,0.00,21.8,21.1,00.0,30.9,23.3,14.4,0000.0,0000.46,0000.83,0000.27
2021-12-25 15:21:00,,0817.7,4.99,0.00,21.8,21.1,00.0,30.9,23.3,14.7,0000.0,0000.47,0000.82,0000.28
2021-12-25 15:22:00,,0817.7,5.00,0.00,21.7,21.0,00.0,30.8,23.2,15.1,0000.0,0000.47,0000.80,0000.29
2021-12-25 15:23:00,,0817.7,5.01,0.00,21.7,20.9,00.0,30.8,23.2,15.1,0000.0,0000.47,0000.81,0000.29
2021-12-25 15:24:00,,0817.7,5.00,0.00,21.6,20.9,00.0,30.8,23.2,15.3,0000.0,0000.43,0000.71,0000.30
2021-12-25 15:25:00,,0817.8,5.02,0.00,21.6,20.9,00.0,30.8,23.2,15.4,0000.0,0000.43,0000.68,0000.30
2021-12-25 15:26:00,,0817.8,4.99,0.00,21.6,20.9,00.0,30.8,23.2,15.5,0000.0,0000.42,0000.66,0000.30
2021-12-25 15:27:00,,0817.8,5.01,0.00,21.6,20.9,00.0,30.8,23.2,15.6,0000.0,0000.43,0000.73,0000.30
2021-12-25 15:28:00,,0817.9,5.00,0.00,21.6,20.9,00.0,30.7,23.1,15.7,0000.0,0000.45,0000.90,0000.31
2021-12-25 15:29:00,,0817.8,5.01,0.00,21.6,20.9,00.0,30.7,23.2,15.8,0000.0,0000.47,0000.97,0000.31
2021-12-25 15:30:00,,0817.9,5.00,0.00,21.6,20.9,00.0,30.7,23.1,15.9,0000.0,0000.48,0000.99,0000.31
2021-12-25 15:31:00,,0817.9,5.00,0.00,21.6,20.9,00.0,30.7,23.1,16.1,0000.0,0000.48,0000.98,0000.32
2021-12-25 15:32:00,,0817.9,5.01,0.00,21.5,20.8,00.0,30.7,23.1,16.3,0000.0,0000.47,0000.95,0000.32
2021-12-25 15:33:00,,0817.9,5.00,0.00,21.5,20.8,00.0,30.7,23.1,16.3,0000.0,0000.46,0000.92,0000.32
2021-12-25 15:34:00,,0818.0,5.00,0.00,21.5,20.8,00.0,30.7,23.1,16.3,0000.0,0000.46,0000.92,0000.31
2021-12-25 15:35:00,,0818.0,4.99,0.00,21.5,20.9,00.0,30.7,23.1,16.2,0000.0,0000.47,0000.95,0000.30
2021-12-25 15:36:00,,0818.0,5.01,0.00,21.5,20.9,00.0,30.7,23.1,16.3,0000.0,0000.48,0001.00,0000.30
2021-12-25 15:37:00,,0818.0,5.00,0.00,21.5,20.9,00.0,30.6,23.2,16.3,0000.0,0000.48,0001.43,0000.31
2021-12-25 15:38:00,,0818.0,4.99,0.00,21.6,20.9,00.0,30.6,23.2,16.5,0000.0,0000.45,0002.51,0000.30
2021-12-25 15:39:00,,0818.0,5.00,0.00,21.6,21.0,00.0,30.6,23.3,16.6,0000.0,0000.44,0003.38,0000.30
2021-12-25 15:40:00,,0818.0,5.01,0.00,21.6,21.0,00.0,30.6,23.3,16.3,0000.0,0000.42,0003.52,0000.29
2021-12-25 15:41:00,,0818.0,4.99,0.00,21.6,21.0,00.0,30.6,23.3,16.3,0000.0,0000.43,0003.54,0000.29
2021-12-25 15:42:00,,0818.0,5.00,0.00,21.6,21.1,00.0,30.6,23.3,16.2,0000.0,0000.43,0003.59,0000.29
2021-12-25 15:43:00,,0818.0,5.00,0.00,21.7,21.1,00.0,30.7,23.3,16.3,0000.0,0000.44,0003.67,0000.28
2021-12-25 15:44:00,,0818.0,5.01,0.00,21.7,21.1,00.0,30.7,23.4,16.1,0000.0,0000.43,0003.66,0000.28
2021-12-25 15:45:00,,0818.0,5.01,0.00,21.7,21.2,00.0,30.7,23.4,16.1,0000.0,0000.41,0003.63,0000.28
2021-12-25 15:46:00,,0818.0,4.99,0.00,21.7,21.2,00.0,30.7,23.4,16.1,0000.0,0000.42,0003.63,0000.28
2021-12-25 15:47:00,,0818.0,5.01,0.00,21.7,21.2,00.0,30.7,23.5,16.3,0000.0,0000.42,0003.61,0000.29
2021-12-25 15:48:00,,0818.0,4.99,0.00,21.8,21.2,00.0,30.7,23.5,16.3,0000.0,0000.43,0003.36,0000.29
2021-12-25 15:49:00,,0818.0,5.01,0.00,21.8,21.3,00.0,30.7,23.5,16.4,0000.0,0000.44,0001.97,0000.30
2021-12-25 15:50:00,,0818.0,4.98,0.00,21.8,21.2,00.0,30.7,23.5,16.1,0000.0,0000.45,0001.34,0000.31
2021-12-25 15:51:00,,0818.0,5.01,0.00,21.8,21.2,00.0,30.7,23.5,16.1,0000.0,0000.46,0000.98,0000.32
2021-12-25 15:52:00,,0818.0,4.99,0.00,21.9,21.3,00.0,30.8,23.6,16.0,0000.0,0000.46,0001.25,0000.32
2021-12-25 15:53:00,,0818.2,5.00,0.00,21.9,21.3,00.0,30.8,23.6,16.1,0000.0,0000.44,0001.47,0000.31
2021-12-25 15:54:00,,0818.2,5.01,0.00,21.9,21.3,00.0,30.8,23.6,15.6,0000.0,0000.44,0001.50,0000.31
2021-12-25 15:55:00,,0818.3,5.00,0.00,21.9,21.3,00.0,30.8,23.6,14.8,0000.0,0000.46,0001.61,0000.31
2021-12-25 15:56:00,,0818.2,5.01,0.00,21.9,21.3,00.0,30.8,23.5,14.5,0000.0,0000.48,0001.67,0000.32
2021-12-25 15:57:00,,0818.2,5.00,0.00,21.8,21.2,00.0,30.8,23.5,14.6,0000.0,0000.50,0001.71,0000.33
2021-12-25 15:58:00,,0818.2,5.00,0.00,21.8,21.2,00.0,30.8,23.5,14.6,0000.0,0000.48,0001.67,0000.33
2021-12-25 15:59:00,,0818.2,5.01,0.00,21.8,21.1,00.0,30.8,23.4,14.6,0000.0,0000.50,0001.70,0000.33
